EZY94MC EGKK-LGSA

Flight info

Callsign EZY94MC
Flight time N/A
Altitude 35000
Route ODVIK Y311 DVR UL9 KONAN DCT KOK UL607 FERDI DCT REMBA DCT LIRSU DCT KRH DCT BATUB DCT TIRUL M738 NATAG DCT LORLO DCT BORMI DCT AKADO DCT IXONA DCT AMUGO DCT VAKSU DCT DIMIS DCT IPTES UL604 TRL UL612 RUSOS
Aircraft A21N/M-SDE2E3FGHIRWXY/LB1

Departure

Time 2026-04-28 09:56
Airport London Gatwick Airport (EGKK)

Arrival

Time N/A
Airport Chania International Airport (LGSA)
Time Latitude Longitude Altitude Speed Heading
2026-04-28 09:17 51.15660 -0.17694 209 ft 0 kts 167°
2026-04-28 09:42 51.15661 -0.17695 209 ft 0 kts 167°
2026-04-28 09:42 51.15685 -0.17703 214 ft 0 kts 167°
2026-04-28 09:42 51.15706 -0.17710 214 ft 0 kts 168°
2026-04-28 09:42 51.15733 -0.17704 216 ft 0 kts 245°
2026-04-28 09:43 51.15737 -0.17680 211 ft 0 kts 257°
2026-04-28 09:43 51.15740 -0.17658 214 ft 0 kts 257°
2026-04-28 09:46 51.15740 -0.17659 213 ft 0 kts 257°
2026-04-28 09:46 51.15738 -0.17672 212 ft 2 kts 257°
2026-04-28 09:46 51.15734 -0.17704 216 ft 4 kts 257°
2026-04-28 09:47 51.15727 -0.17755 212 ft 6 kts 257°
2026-04-28 09:47 51.15717 -0.17826 213 ft 7 kts 258°
2026-04-28 09:47 51.15705 -0.17914 217 ft 9 kts 258°
2026-04-28 09:47 51.15690 -0.18023 217 ft 11 kts 257°
2026-04-28 09:48 51.15672 -0.18151 214 ft 13 kts 258°
2026-04-28 09:48 51.15652 -0.18298 214 ft 14 kts 258°
2026-04-28 09:48 51.15630 -0.18462 216 ft 16 kts 257°
2026-04-28 09:48 51.15605 -0.18639 210 ft 17 kts 258°
2026-04-28 09:49 51.15584 -0.18792 212 ft 9 kts 257°
2026-04-28 09:49 51.15525 -0.18819 216 ft 11 kts 166°
2026-04-28 09:49 51.15449 -0.18790 211 ft 12 kts 167°
2026-04-28 09:49 51.15366 -0.18763 209 ft 13 kts 169°
2026-04-28 09:50 51.15274 -0.18732 211 ft 14 kts 167°
2026-04-28 09:50 51.15184 -0.18700 213 ft 11 kts 167°
2026-04-28 09:50 51.15126 -0.18756 217 ft 12 kts 258°
2026-04-28 09:50 51.15107 -0.18894 213 ft 13 kts 257°
2026-04-28 09:51 51.15086 -0.19046 218 ft 15 kts 259°
2026-04-28 09:51 51.15065 -0.19210 211 ft 16 kts 257°
2026-04-28 09:51 51.15040 -0.19385 217 ft 17 kts 257°
2026-04-28 09:51 51.15014 -0.19571 218 ft 18 kts 258°
2026-04-28 09:52 51.14988 -0.19767 212 ft 19 kts 257°
2026-04-28 09:52 51.14959 -0.19972 209 ft 19 kts 258°
2026-04-28 09:52 51.14930 -0.20184 212 ft 20 kts 257°
2026-04-28 09:52 51.14900 -0.20403 208 ft 21 kts 257°
2026-04-28 09:53 51.14869 -0.20631 211 ft 21 kts 258°
2026-04-28 09:53 51.14836 -0.20865 213 ft 22 kts 257°
2026-04-28 09:53 51.14808 -0.21073 214 ft 15 kts 257°
2026-04-28 09:53 51.14783 -0.21191 214 ft 12 kts 251°
2026-04-28 09:54 51.14764 -0.21324 209 ft 11 kts 257°
2026-04-28 09:54 51.14726 -0.21398 209 ft 10 kts 187°
2026-04-28 09:54 51.14658 -0.21353 217 ft 11 kts 155°
2026-04-28 09:54 51.14581 -0.21311 213 ft 12 kts 164°
2026-04-28 09:55 51.14522 -0.21216 213 ft 13 kts 100°
2026-04-28 09:55 51.14535 -0.21054 212 ft 18 kts 77°
2026-04-28 09:55 51.14617 -0.20466 214 ft 91 kts 77°
2026-04-28 09:55 51.14814 -0.19141 222 ft 154 kts 76°
2026-04-28 09:56 51.15007 -0.17447 972 ft 156 kts 77°
2026-04-28 09:56 51.15179 -0.15737 1781 ft 157 kts 77°
2026-04-28 09:56 51.15369 -0.13931 2271 ft 173 kts 76°
2026-04-28 09:56 51.15595 -0.11951 2744 ft 191 kts 76°
2026-04-28 09:57 51.15865 -0.09705 3022 ft 220 kts 76°
2026-04-28 09:57 51.16180 -0.07217 3572 ft 235 kts 76°
2026-04-28 09:57 51.16514 -0.04640 4382 ft 240 kts 76°
2026-04-28 09:57 51.16728 -0.01962 5139 ft 248 kts 88°
2026-04-28 09:58 51.16714 0.00783 6096 ft 248 kts 88°
2026-04-28 09:58 51.16692 0.03534 6981 ft 249 kts 89°
2026-04-28 09:58 51.16671 0.06296 7796 ft 251 kts 89°
2026-04-28 09:58 51.16632 0.09094 8613 ft 254 kts 89°
2026-04-28 09:59 51.16595 0.11916 9469 ft 256 kts 89°
2026-04-28 09:59 51.16569 0.14796 10193 ft 264 kts 90°
2026-04-28 09:59 51.16541 0.17763 10819 ft 275 kts 89°
2026-04-28 09:59 51.16509 0.20916 11154 ft 295 kts 90°
2026-04-28 10:00 51.16472 0.24289 11451 ft 315 kts 90°
2026-04-28 10:00 51.16430 0.27886 11745 ft 334 kts 90°
2026-04-28 10:00 51.16382 0.31675 12011 ft 351 kts 90°
2026-04-28 10:00 51.16334 0.35659 12260 ft 367 kts 90°
2026-04-28 10:01 51.16281 0.39791 12572 ft 378 kts 90°
2026-04-28 10:01 51.16221 0.43992 13147 ft 380 kts 90°
2026-04-28 10:01 51.16161 0.48225 13688 ft 384 kts 90°
2026-04-28 10:01 51.16102 0.52426 14243 ft 385 kts 90°
2026-04-28 10:02 51.16041 0.56704 14772 ft 386 kts 90°
2026-04-28 10:02 51.15977 0.60997 15181 ft 390 kts 90°
2026-04-28 10:02 51.15909 0.65335 15559 ft 393 kts 90°
2026-04-28 10:02 51.15843 0.69696 15977 ft 395 kts 90°
2026-04-28 10:03 51.15774 0.74077 16350 ft 397 kts 90°
2026-04-28 10:03 51.15700 0.78484 16689 ft 399 kts 90°
2026-04-28 10:03 51.15626 0.82906 17035 ft 401 kts 90°
2026-04-28 10:03 51.15548 0.87354 17346 ft 403 kts 90°
2026-04-28 10:04 51.15469 0.91825 17699 ft 404 kts 90°
2026-04-28 10:04 51.15391 0.96310 18017 ft 406 kts 91°
2026-04-28 10:04 51.15309 1.00837 18301 ft 409 kts 91°
2026-04-28 10:04 51.15224 1.05364 18668 ft 410 kts 91°
2026-04-28 10:05 51.15137 1.09907 19008 ft 410 kts 91°
2026-04-28 10:05 51.15049 1.14465 19275 ft 413 kts 91°
2026-04-28 10:05 51.14959 1.19043 19619 ft 414 kts 91°
2026-04-28 10:05 51.14867 1.23638 19894 ft 417 kts 91°
2026-04-28 10:06 51.14773 1.28277 20132 ft 419 kts 91°
2026-04-28 10:06 51.14676 1.32908 20504 ft 419 kts 91°
2026-04-28 10:06 51.14578 1.37558 20741 ft 422 kts 91°
2026-04-28 10:06 51.14477 1.42239 21077 ft 423 kts 91°
2026-04-28 10:07 51.14373 1.46930 21390 ft 426 kts 92°
2026-04-28 10:07 51.14263 1.51657 21685 ft 428 kts 92°
2026-04-28 10:07 51.14152 1.56394 22046 ft 428 kts 92°
2026-04-28 10:07 51.14041 1.61149 22241 ft 432 kts 92°
2026-04-28 10:08 51.13926 1.65938 22471 ft 434 kts 92°
2026-04-28 10:08 51.13811 1.70742 22812 ft 434 kts 92°
2026-04-28 10:08 51.13693 1.75559 23095 ft 436 kts 92°
2026-04-28 10:08 51.13570 1.80402 23400 ft 438 kts 92°
2026-04-28 10:09 51.13447 1.85250 23708 ft 440 kts 92°
2026-04-28 10:09 51.13321 1.90136 23951 ft 443 kts 92°
2026-04-28 10:09 51.13195 1.95060 24205 ft 447 kts 95°
2026-04-28 10:09 51.13047 2.00013 24483 ft 448 kts 95°
2026-04-28 10:10 51.12799 2.04961 24778 ft 450 kts 97°
2026-04-28 10:10 51.12535 2.09924 25195 ft 448 kts 97°
2026-04-28 10:10 51.12268 2.14847 25603 ft 447 kts 97°
2026-04-28 10:10 51.12001 2.19772 25937 ft 448 kts 97°
2026-04-28 10:11 51.11735 2.24703 26330 ft 447 kts 96°
2026-04-28 10:11 51.11468 2.29599 26661 ft 448 kts 97°
2026-04-28 10:11 51.11196 2.34543 27035 ft 448 kts 97°
2026-04-28 10:11 51.10919 2.39474 27402 ft 447 kts 97°
2026-04-28 10:12 51.10641 2.44406 27686 ft 449 kts 97°
2026-04-28 10:12 51.10357 2.49364 27950 ft 451 kts 97°
2026-04-28 10:12 51.10069 2.54355 28235 ft 453 kts 97°
2026-04-28 10:12 51.09781 2.59344 28591 ft 454 kts 98°
2026-04-28 10:13 51.09451 2.64338 28955 ft 453 kts 101°
2026-04-28 10:13 51.08749 2.69199 29244 ft 452 kts 109°
2026-04-28 10:13 51.07879 2.73997 29607 ft 451 kts 109°
2026-04-28 10:13 51.06996 2.78794 29935 ft 452 kts 109°
2026-04-28 10:14 51.06116 2.83599 30294 ft 453 kts 108°
2026-04-28 10:14 51.05235 2.88423 30483 ft 455 kts 109°
2026-04-28 10:14 51.04353 2.93263 30718 ft 457 kts 109°
2026-04-28 10:14 51.03468 2.98112 31016 ft 457 kts 108°
2026-04-28 10:15 51.02584 3.02945 31340 ft 455 kts 108°
2026-04-28 10:15 51.01698 3.07771 31656 ft 454 kts 108°
2026-04-28 10:15 51.00813 3.12579 31943 ft 454 kts 108°
2026-04-28 10:15 50.99939 3.17318 32215 ft 453 kts 109°
2026-04-28 10:16 50.99051 3.22102 32548 ft 451 kts 108°
2026-04-28 10:16 50.98164 3.26867 32851 ft 449 kts 108°
2026-04-28 10:16 50.97276 3.31624 33062 ft 450 kts 109°
2026-04-28 10:16 50.96384 3.36386 33271 ft 450 kts 109°
2026-04-28 10:17 50.95494 3.41134 33515 ft 449 kts 108°
2026-04-28 10:17 50.94604 3.45876 33758 ft 449 kts 108°
2026-04-28 10:17 50.93713 3.50613 34009 ft 448 kts 108°
2026-04-28 10:17 50.92824 3.55332 34268 ft 446 kts 108°
2026-04-28 10:18 50.91935 3.60034 34453 ft 445 kts 108°
2026-04-28 10:18 50.91045 3.64726 34615 ft 444 kts 108°
2026-04-28 10:18 50.90152 3.69406 34789 ft 444 kts 108°
2026-04-28 10:18 50.89258 3.74086 34937 ft 443 kts 108°
2026-04-28 10:19 50.88367 3.78765 35052 ft 444 kts 108°
2026-04-28 10:19 50.87474 3.83447 35173 ft 445 kts 108°
2026-04-28 10:19 50.85671 3.92843 35265 ft 447 kts 108°
2026-04-28 10:20 50.83859 4.02219 35258 ft 444 kts 108°
2026-04-28 10:20 50.82049 4.11565 35272 ft 446 kts 108°
2026-04-28 10:21 50.80228 4.20932 35257 ft 446 kts 108°
2026-04-28 10:21 50.78385 4.30343 35253 ft 450 kts 109°
2026-04-28 10:22 50.76527 4.39766 35260 ft 449 kts 108°
2026-04-28 10:22 50.74666 4.49189 35264 ft 449 kts 109°
2026-04-28 10:23 50.72796 4.58604 35257 ft 450 kts 109°
2026-04-28 10:23 50.70922 4.68007 35267 ft 450 kts 108°
2026-04-28 10:24 50.69018 4.77496 35260 ft 455 kts 108°
2026-04-28 10:24 50.67115 4.86941 35250 ft 449 kts 109°
2026-04-28 10:25 50.64814 4.96159 35240 ft 456 kts 116°
2026-04-28 10:25 50.62082 5.05191 35231 ft 456 kts 116°
2026-04-28 10:26 50.59356 5.14197 35227 ft 458 kts 117°
2026-04-28 10:26 50.56626 5.23202 35223 ft 458 kts 116°
2026-04-28 10:27 50.53881 5.32237 35211 ft 458 kts 117°
2026-04-28 10:27 50.51132 5.41275 35206 ft 459 kts 117°
2026-04-28 10:28 50.48358 5.50337 35205 ft 461 kts 117°
2026-04-28 10:29 50.44651 5.62388 35194 ft 460 kts 117°
2026-04-28 10:29 50.41861 5.71426 35204 ft 461 kts 117°
2026-04-28 10:30 50.39062 5.80451 35177 ft 460 kts 117°
2026-04-28 10:30 50.36260 5.89469 35166 ft 462 kts 117°
2026-04-28 10:31 50.33442 5.98498 35145 ft 461 kts 117°
2026-04-28 10:31 50.30613 6.07530 35144 ft 465 kts 117°
2026-04-28 10:32 50.27761 6.16578 35136 ft 463 kts 117°
2026-04-28 10:32 50.24904 6.25617 35116 ft 464 kts 118°
2026-04-28 10:33 50.22036 6.34664 35119 ft 464 kts 118°
2026-04-28 10:33 50.19138 6.43666 35096 ft 464 kts 121°
2026-04-28 10:34 50.15286 6.51723 35103 ft 462 kts 132°
2026-04-28 10:34 50.11108 6.59351 35123 ft 462 kts 133°
2026-04-28 10:35 50.06952 6.66992 35130 ft 462 kts 132°
2026-04-28 10:35 50.02803 6.74636 35132 ft 462 kts 132°
2026-04-28 10:36 49.98651 6.82272 35126 ft 463 kts 133°
2026-04-28 10:36 49.94456 6.89952 35127 ft 468 kts 133°
2026-04-28 10:37 49.90249 6.97628 35113 ft 467 kts 133°
2026-04-28 10:37 49.86037 7.05289 35114 ft 467 kts 133°
2026-04-28 10:38 49.81822 7.12936 35116 ft 466 kts 133°
2026-04-28 10:38 49.77607 7.20566 35119 ft 466 kts 134°
2026-04-28 10:39 49.73379 7.28188 35126 ft 470 kts 134°
2026-04-28 10:39 49.69110 7.35860 35128 ft 470 kts 134°
2026-04-28 10:40 49.64845 7.43538 35140 ft 471 kts 134°
2026-04-28 10:40 49.60571 7.51192 35129 ft 471 kts 134°
2026-04-28 10:41 49.56281 7.58837 35114 ft 471 kts 134°
2026-04-28 10:41 49.51987 7.66469 35119 ft 472 kts 134°
2026-04-28 10:42 49.47713 7.74056 35112 ft 474 kts 134°
2026-04-28 10:42 49.43361 7.81751 35118 ft 474 kts 134°
2026-04-28 10:43 49.39040 7.89369 35119 ft 474 kts 135°
2026-04-28 10:43 49.34735 7.96933 35131 ft 473 kts 135°
2026-04-28 10:44 49.30400 8.04523 35121 ft 475 kts 135°
2026-04-28 10:44 49.26035 8.12155 35125 ft 476 kts 135°
2026-04-28 10:45 49.21657 8.19778 35107 ft 479 kts 135°
2026-04-28 10:45 49.17227 8.27468 35130 ft 483 kts 135°
2026-04-28 10:46 49.12790 8.35165 35113 ft 483 kts 135°
2026-04-28 10:46 49.08345 8.42846 35106 ft 483 kts 135°
2026-04-28 10:47 49.03894 8.50500 35107 ft 483 kts 136°
2026-04-28 10:47 48.99356 8.58032 35108 ft 479 kts 142°
2026-04-28 10:48 48.94012 8.63948 35110 ft 475 kts 152°
2026-04-28 10:48 48.88502 8.69490 35096 ft 475 kts 151°
2026-04-28 10:49 48.83016 8.75099 35105 ft 475 kts 151°
2026-04-28 10:49 48.77543 8.80685 35101 ft 473 kts 152°
2026-04-28 10:50 48.72075 8.86245 35081 ft 472 kts 152°
2026-04-28 10:50 48.66622 8.91778 35097 ft 471 kts 152°
2026-04-28 10:51 48.61173 8.97300 35092 ft 471 kts 152°
2026-04-28 10:51 48.55724 9.02813 35099 ft 471 kts 152°
2026-04-28 10:52 48.50261 9.08314 35101 ft 472 kts 152°
2026-04-28 10:52 48.44789 9.13807 35091 ft 472 kts 152°
2026-04-28 10:53 48.39317 9.19289 35082 ft 473 kts 152°
2026-04-28 10:53 48.33840 9.24764 35082 ft 473 kts 152°
2026-04-28 10:54 48.28362 9.30220 35088 ft 472 kts 152°
2026-04-28 10:54 48.22881 9.35661 35076 ft 471 kts 153°
2026-04-28 10:55 48.17437 9.41044 35082 ft 471 kts 153°
2026-04-28 10:55 48.11958 9.46470 35096 ft 473 kts 152°
2026-04-28 10:56 48.06481 9.51878 35087 ft 472 kts 153°
2026-04-28 10:56 48.01005 9.57305 35089 ft 472 kts 152°
2026-04-28 10:57 47.95595 9.62847 35098 ft 472 kts 151°
2026-04-28 10:57 47.90167 9.68394 35091 ft 473 kts 152°
2026-04-28 10:58 47.84745 9.73914 35088 ft 472 kts 152°
2026-04-28 10:58 47.79311 9.79430 35070 ft 472 kts 152°
2026-04-28 10:59 47.73890 9.84926 35083 ft 472 kts 152°
2026-04-28 10:59 47.68468 9.90407 35079 ft 472 kts 152°
2026-04-28 11:00 47.63040 9.95884 35078 ft 472 kts 152°
2026-04-28 11:00 47.57604 10.01349 35079 ft 472 kts 152°
2026-04-28 11:01 47.52176 10.06797 35073 ft 471 kts 152°
2026-04-28 11:01 47.46720 10.12256 35075 ft 475 kts 152°
2026-04-28 11:02 47.41255 10.17712 35077 ft 474 kts 152°
2026-04-28 11:02 47.35771 10.23176 35084 ft 476 kts 152°
2026-04-28 11:03 47.30285 10.28626 35081 ft 476 kts 152°
2026-04-28 11:03 47.24810 10.34050 35084 ft 474 kts 152°
2026-04-28 11:04 47.19329 10.39463 35085 ft 476 kts 152°
2026-04-28 11:04 47.13875 10.44841 35106 ft 475 kts 152°
2026-04-28 11:05 47.08385 10.50234 35103 ft 475 kts 152°
2026-04-28 11:05 47.02711 10.55094 35102 ft 480 kts 148°
2026-04-28 11:05 47.00248 10.58485 35124 ft 487 kts 137°
2026-04-28 11:06 46.97990 10.62175 35132 ft 486 kts 136°
2026-04-28 11:06 46.93345 10.69369 35132 ft 485 kts 139°
2026-04-28 11:07 46.88542 10.76324 35151 ft 485 kts 140°
2026-04-28 11:07 46.83730 10.83227 35151 ft 485 kts 140°
2026-04-28 11:08 46.78924 10.90130 35156 ft 486 kts 140°
2026-04-28 11:08 46.74103 10.97036 35160 ft 485 kts 140°
2026-04-28 11:09 46.69279 11.03924 35142 ft 486 kts 140°
2026-04-28 11:09 46.64440 11.10804 35160 ft 486 kts 140°
2026-04-28 11:10 46.59605 11.17673 35165 ft 485 kts 140°
2026-04-28 11:10 46.54777 11.24514 35152 ft 485 kts 140°
2026-04-28 11:11 46.49931 11.31360 35057 ft 485 kts 140°
2026-04-28 11:11 46.45092 11.38187 35060 ft 486 kts 140°
2026-04-28 11:12 46.40233 11.45016 35136 ft 486 kts 140°
2026-04-28 11:12 46.35379 11.51816 35124 ft 485 kts 140°
2026-04-28 11:13 46.31355 11.57442 35127 ft 484 kts 140°
2026-04-28 11:13 46.26506 11.64205 35132 ft 484 kts 140°
2026-04-28 11:14 46.21646 11.70934 35128 ft 484 kts 140°
2026-04-28 11:14 46.16795 11.77690 35114 ft 484 kts 140°
2026-04-28 11:15 46.11935 11.84423 35119 ft 484 kts 140°
2026-04-28 11:15 46.07079 11.91136 35136 ft 484 kts 140°
2026-04-28 11:16 46.02209 11.97845 35117 ft 485 kts 140°
2026-04-28 11:16 45.97328 12.04553 35116 ft 484 kts 140°
2026-04-28 11:17 45.92448 12.11231 35074 ft 485 kts 140°
2026-04-28 11:17 45.87572 12.17904 35090 ft 484 kts 140°
2026-04-28 11:18 45.82687 12.24559 35077 ft 484 kts 140°
2026-04-28 11:18 45.77796 12.31205 35076 ft 485 kts 140°
2026-04-28 11:19 45.72904 12.37840 35070 ft 485 kts 140°
2026-04-28 11:19 45.68012 12.44459 35057 ft 484 kts 140°
2026-04-28 11:20 45.63163 12.51004 35073 ft 483 kts 140°
2026-04-28 11:20 45.58279 12.57585 35086 ft 483 kts 140°
2026-04-28 11:21 45.53384 12.64152 35077 ft 483 kts 140°
2026-04-28 11:21 45.48487 12.70716 35074 ft 483 kts 140°
2026-04-28 11:22 45.43583 12.77264 35062 ft 483 kts 140°
2026-04-28 11:22 45.38677 12.83787 35073 ft 483 kts 140°
2026-04-28 11:23 45.33765 12.90304 35072 ft 483 kts 140°
2026-04-28 11:23 45.28849 12.96813 35072 ft 483 kts 140°
2026-04-28 11:24 45.23937 13.03321 35079 ft 483 kts 140°
2026-04-28 11:24 45.19025 13.09808 35078 ft 482 kts 140°
2026-04-28 11:25 45.14115 13.16280 35073 ft 482 kts 140°
2026-04-28 11:25 45.09201 13.22731 35079 ft 481 kts 140°
2026-04-28 11:26 45.04291 13.29157 35087 ft 481 kts 140°
2026-04-28 11:26 44.99389 13.35577 35089 ft 481 kts 140°
2026-04-28 11:27 44.94475 13.41983 35076 ft 481 kts 140°
2026-04-28 11:27 44.89563 13.48378 35084 ft 480 kts 140°
2026-04-28 11:28 44.84700 13.54821 35087 ft 481 kts 135°
2026-04-28 11:28 44.80589 13.62225 35086 ft 483 kts 128°
2026-04-28 11:29 44.76551 13.69872 35079 ft 483 kts 128°
2026-04-28 11:29 44.72513 13.77436 35076 ft 484 kts 128°
2026-04-28 11:30 44.68490 13.84926 35077 ft 483 kts 129°
2026-04-28 11:30 44.62382 13.96275 35074 ft 483 kts 129°
2026-04-28 11:31 44.58321 14.03793 35075 ft 483 kts 129°
2026-04-28 11:31 44.54285 14.11241 35074 ft 483 kts 129°
2026-04-28 11:32 44.50192 14.18781 35074 ft 483 kts 129°
2026-04-28 11:32 44.46146 14.26202 35069 ft 482 kts 129°
2026-04-28 11:33 44.42070 14.33659 35076 ft 482 kts 129°
2026-04-28 11:33 44.37995 14.41110 35081 ft 482 kts 129°
2026-04-28 11:34 44.33921 14.48551 35076 ft 482 kts 129°
2026-04-28 11:34 44.29844 14.55986 35077 ft 482 kts 129°
2026-04-28 11:35 44.25754 14.63404 35077 ft 482 kts 129°
2026-04-28 11:35 44.21664 14.70804 35072 ft 481 kts 129°
2026-04-28 11:36 44.17570 14.78187 35081 ft 482 kts 129°
2026-04-28 11:36 44.13473 14.85568 35087 ft 482 kts 129°
2026-04-28 11:37 44.09375 14.92937 35086 ft 482 kts 129°
2026-04-28 11:37 44.05264 15.00287 35104 ft 482 kts 129°
2026-04-28 11:38 44.01149 15.07637 35114 ft 481 kts 129°
2026-04-28 11:38 43.97034 15.14962 35099 ft 480 kts 129°
2026-04-28 11:39 43.92920 15.22282 35103 ft 481 kts 129°
2026-04-28 11:39 43.88799 15.29591 35103 ft 481 kts 129°
2026-04-28 11:40 43.84672 15.36891 35085 ft 481 kts 129°
2026-04-28 11:40 43.80537 15.44190 35080 ft 482 kts 129°
2026-04-28 11:41 43.76427 15.51426 35076 ft 481 kts 129°
2026-04-28 11:41 43.72279 15.58703 35078 ft 481 kts 129°
2026-04-28 11:42 43.68131 15.65966 35079 ft 482 kts 129°
2026-04-28 11:42 43.63972 15.73216 35081 ft 482 kts 129°
2026-04-28 11:43 43.59808 15.80460 35077 ft 482 kts 129°
2026-04-28 11:43 43.55637 15.87701 35078 ft 482 kts 129°
2026-04-28 11:44 43.51466 15.94927 35077 ft 481 kts 129°
2026-04-28 11:44 43.47291 16.02142 35078 ft 481 kts 129°
2026-04-28 11:45 43.43121 16.09342 35097 ft 481 kts 129°
2026-04-28 11:45 43.38946 16.16537 35102 ft 481 kts 129°
2026-04-28 11:46 43.34764 16.23722 35097 ft 482 kts 130°
2026-04-28 11:46 43.30573 16.30895 35088 ft 481 kts 130°
2026-04-28 11:47 43.26379 16.38060 35092 ft 482 kts 130°
2026-04-28 11:47 43.22179 16.45216 35080 ft 481 kts 130°
2026-04-28 11:48 43.17978 16.52351 35095 ft 481 kts 130°
2026-04-28 11:48 43.13777 16.59484 35100 ft 481 kts 130°
2026-04-28 11:49 43.09573 16.66599 35110 ft 481 kts 130°
2026-04-28 11:49 43.05360 16.73708 35094 ft 481 kts 130°
2026-04-28 11:50 43.01175 16.80758 35097 ft 481 kts 130°
2026-04-28 11:50 42.96958 16.87836 35106 ft 480 kts 130°
2026-04-28 11:51 42.92742 16.94903 35122 ft 480 kts 130°
2026-04-28 11:51 42.88520 17.01955 35118 ft 480 kts 130°
2026-04-28 11:52 42.84299 17.08991 35122 ft 480 kts 130°
2026-04-28 11:52 42.80071 17.16021 35139 ft 479 kts 130°
2026-04-28 11:53 42.75846 17.23027 35157 ft 478 kts 130°
2026-04-28 11:53 42.71637 17.29997 35134 ft 479 kts 130°
2026-04-28 11:54 42.67413 17.36979 35178 ft 476 kts 130°
2026-04-28 11:54 42.63246 17.43867 35162 ft 471 kts 130°
2026-04-28 11:55 42.59029 17.50798 35158 ft 479 kts 130°
2026-04-28 11:55 42.54782 17.57769 35144 ft 479 kts 129°
2026-04-28 11:56 42.50744 17.64976 35147 ft 482 kts 127°
2026-04-28 11:56 42.46725 17.72229 35119 ft 481 kts 127°
2026-04-28 11:57 42.42702 17.79464 35115 ft 481 kts 127°
2026-04-28 11:57 42.38674 17.86677 35116 ft 480 kts 127°
2026-04-28 11:58 42.34651 17.93878 35111 ft 480 kts 127°
2026-04-28 11:58 42.30616 18.01073 35136 ft 480 kts 127°
2026-04-28 11:59 42.26584 18.08253 35130 ft 479 kts 127°
2026-04-28 11:59 42.22549 18.15419 35117 ft 480 kts 128°
2026-04-28 12:00 42.19190 18.21373 35135 ft 480 kts 128°
2026-04-28 12:00 42.15140 18.28530 35136 ft 480 kts 128°
2026-04-28 12:01 42.11096 18.35655 35128 ft 477 kts 128°
2026-04-28 12:01 42.07062 18.42759 35138 ft 477 kts 128°
2026-04-28 12:02 42.03017 18.49856 35120 ft 478 kts 128°
2026-04-28 12:02 41.98341 18.56166 35129 ft 477 kts 141°
2026-04-28 12:03 41.93199 18.61788 35132 ft 477 kts 142°
2026-04-28 12:03 41.88065 18.67419 35120 ft 476 kts 141°
2026-04-28 12:04 41.82955 18.73032 35122 ft 475 kts 141°
2026-04-28 12:04 41.77849 18.78641 35140 ft 474 kts 142°
2026-04-28 12:05 41.72740 18.84238 35115 ft 475 kts 141°
2026-04-28 12:05 41.67619 18.89843 35113 ft 475 kts 142°
2026-04-28 12:06 41.62500 18.95432 35107 ft 474 kts 141°
2026-04-28 12:06 41.57399 19.00984 35103 ft 473 kts 141°
2026-04-28 12:07 41.52288 19.06536 35109 ft 473 kts 141°
2026-04-28 12:07 41.47178 19.12072 35107 ft 473 kts 141°
2026-04-28 12:08 41.42059 19.17614 35092 ft 474 kts 141°
2026-04-28 12:08 41.36948 19.23133 35116 ft 472 kts 141°
2026-04-28 12:09 41.31842 19.28634 35116 ft 472 kts 141°
2026-04-28 12:09 41.26730 19.34127 35108 ft 472 kts 141°
2026-04-28 12:10 41.21618 19.39611 35098 ft 472 kts 141°
2026-04-28 12:10 41.16508 19.45089 35120 ft 472 kts 141°
2026-04-28 12:11 41.11391 19.50544 35145 ft 472 kts 141°
2026-04-28 12:11 41.06284 19.55996 35129 ft 472 kts 141°
2026-04-28 12:12 41.01151 19.61462 35127 ft 473 kts 141°
2026-04-28 12:12 40.96018 19.66910 35117 ft 474 kts 142°
2026-04-28 12:13 40.90877 19.72359 35121 ft 473 kts 142°
2026-04-28 12:13 40.85738 19.77789 35116 ft 472 kts 142°
2026-04-28 12:14 40.80606 19.83200 35107 ft 473 kts 141°
2026-04-28 12:14 40.75497 19.88590 35096 ft 473 kts 141°
2026-04-28 12:15 40.70319 19.94042 35092 ft 473 kts 141°
2026-04-28 12:15 40.65198 19.99406 35092 ft 473 kts 142°
2026-04-28 12:16 40.60039 20.04799 35091 ft 473 kts 142°
2026-04-28 12:16 40.54890 20.10188 35099 ft 473 kts 142°
2026-04-28 12:17 40.49738 20.15552 35099 ft 473 kts 142°
2026-04-28 12:17 40.44586 20.20913 35097 ft 473 kts 142°
2026-04-28 12:18 40.39432 20.26269 35110 ft 472 kts 142°
2026-04-28 12:18 40.34276 20.31616 35097 ft 472 kts 142°
2026-04-28 12:19 40.29117 20.36943 35095 ft 472 kts 142°
2026-04-28 12:19 40.23959 20.42261 35073 ft 472 kts 142°
2026-04-28 12:20 40.18798 20.47590 35094 ft 473 kts 142°
2026-04-28 12:20 40.13627 20.52904 35082 ft 473 kts 142°
2026-04-28 12:21 40.08457 20.58189 35083 ft 472 kts 143°
2026-04-28 12:21 40.02796 20.62501 35084 ft 471 kts 153°
2026-04-28 12:22 39.96951 20.66365 35102 ft 471 kts 154°
2026-04-28 12:22 39.91119 20.70254 35102 ft 471 kts 153°
2026-04-28 12:23 39.85288 20.74148 35091 ft 471 kts 153°
2026-04-28 12:23 39.79462 20.78027 35093 ft 471 kts 153°
2026-04-28 12:24 39.73620 20.81906 35086 ft 472 kts 153°
2026-04-28 12:24 39.67770 20.85774 35090 ft 472 kts 154°
2026-04-28 12:25 39.61925 20.89650 35086 ft 472 kts 154°
2026-04-28 12:25 39.56070 20.93518 35077 ft 472 kts 154°
2026-04-28 12:26 39.50222 20.97379 35086 ft 472 kts 154°
2026-04-28 12:26 39.44368 21.01235 35073 ft 471 kts 154°
2026-04-28 12:27 39.38514 21.05082 35083 ft 473 kts 154°